Content
SEND FEEDBACK

Daily
Averages
Monthly
Summary
United Kingdom

CARDIFF, WALES


Home > Europe > United Kingdom > Wales
Elevation: 220 feet     Latitude: 51 24N     Longitude: 003 21W

WEATHER
 
SELECT A DAY
Number of Records: 276,749;   Date Range: 7/1/96 - 9/20/14
 
SHARE

PRINT THIS DATA

[ ← Previous Day ]
WEATHER ALMANAC - JUNE 21, 2013
[ Next Day → ]
[ °C ]   °F
Weather ElementAverageHighLow
Temperature56.9 °F60.8 °F (10:50 am)53.6 °F (9:50 pm)
Dewpoint54.4 °F59 °F (1:20 pm)48.2 °F (10:50 pm)
Humidity91.7 %100 % (12:50 am)77 % (10:50 pm)
Barometer29.86 in29.92 in (4:20 pm)29.80 in (12:50 am)
Wind Speed12.3 mph17.3 mph (2:50 pm)
Weather ElementAverage
Visibility5.9 mi
Wind DirectionW (271.9 °)

Weather ElementTotal
Precipitation---
Heating Degree Days7.8 (Base 65)
Growing Degree Days7.2 (Base 50)
Averaged from 47 records on June 21, 2013
WEATHER CONDITIONS BREAKOUT
WIND DIRECTION BREAKOUT
WEATHER BY HOUR - JUNE 21, 2013
[ °C ]   °F
Local TimeTemperatureDewpointHumidityBarometerVisibilityWind DirectionWind SpeedGust SpeedPrecipitationEventsConditions
12:50 AM55.4 °F55.4 °F100 %29.80 in3.7 miWest (270°)9.2 mphMostly Cloudy
1:20 AM55.4 °F55.4 °F100 %29.80 in5.0 miWest (280°)9.2 mphMostly Cloudy
1:50 AM55.4 °F53.6 °F94 %29.80 in4.3 miWest (270°)10.4 mphMostly Cloudy
2:20 AM55.4 °F53.6 °F94 %29.80 in6.2 miWest (280°)13.8 mphMostly Cloudy
2:50 AM55.4 °F53.6 °F94 %29.80 in6.2 miWest (280°)15.0 mphOvercast
3:20 AM55.4 °F53.6 °F94 %29.80 in6.2 miWNW (290°)15.0 mphMostly Cloudy
3:50 AM55.4 °F53.6 °F94 %29.80 in6.2 miWest (280°)12.7 mphMostly Cloudy
4:20 AM55.4 °F53.6 °F94 %29.80 in6.2 miWest (280°)12.7 mphOvercast
4:50 AM55.4 °F53.6 °F94 %29.80 in6.2 miWest (280°)11.5 mphMostly Cloudy
5:20 AM55.4 °F53.6 °F94 %29.80 in6.2 miWest (280°)10.4 mphMostly Cloudy
5:50 AM55.4 °F53.6 °F94 %29.80 in6.2 miWest (280°)9.2 mphMostly Cloudy
6:20 AM55.4 °F53.6 °F94 %29.83 in6.2 miWest (280°)10.4 mphOvercast
6:50 AM55.4 °F53.6 °F94 %29.83 in6.2 miWNW (290°)11.5 mphOvercast
7:20 AM55.4 °F55.4 °F100 %29.83 in5.6 miWNW (290°)10.4 mphMostly Cloudy
7:50 AM55.4 °F55.4 °F100 %29.83 in3.7 miWNW (290°)10.4 mphMostly Cloudy
8:20 AM55.4 °F55.4 °F100 %29.83 in3.1 miWest (280°)12.7 mphMostly Cloudy
8:50 AM57.2 °F55.4 °F94 %29.83 in6.2 miWest (280°)10.4 mphMostly Cloudy
9:20 AM57.2 °F55.4 °F94 %29.83 in6.2 miWest (280°)10.4 mphMostly Cloudy
9:50 AM57.2 °F57.2 °F100 %29.86 in5.6 miWNW (290°)10.4 mphMostly Cloudy
10:20 AM59.0 °F57.2 °F94 %29.86 in6.2 miWest (280°)10.4 mphMostly Cloudy
10:50 AM60.8 °F57.2 °F88 %29.86 in6.2 miWest (280°)10.4 mphMostly Cloudy
11:20 AM59.0 °F57.2 °F94 %29.86 in6.2 miWest (270°)9.2 mphMostly Cloudy
11:50 AM59.0 °F57.2 °F94 %29.86 in5.6 miWSW (250°)11.5 mphHaze
12:20 PM59.0 °F57.2 °F94 %29.86 in5.6 miWest (270°)10.4 mphScattered Clouds
12:50 PM59.0 °F57.2 °F94 %29.86 in5.0 miWest (260°)12.7 mphMostly Cloudy
1:20 PM60.8 °F59.0 °F94 %29.86 in5.0 miWest (260°)13.8 mphMostly Cloudy
1:50 PM60.8 °F59.0 °F94 %29.89 in6.2 miWest (270°)13.8 mphScattered Clouds
2:20 PM60.8 °F57.2 °F88 %29.89 in6.2 miWest (270°)15.0 mphMostly Cloudy
2:50 PM59.0 °F57.2 °F94 %29.89 in6.2 miWest (270°)17.3 mphScattered Clouds
3:20 PM59.0 °F57.2 °F94 %29.89 in6.2 miWest (270°)16.1 mphScattered Clouds
3:50 PM59.0 °F57.2 °F94 %29.89 in6.2 miWest (270°)15.0 mphMostly Cloudy
4:20 PM59.0 °F57.2 °F94 %29.92 in6.2 miWest (270°)17.3 mphMostly Cloudy
4:50 PM59.0 °F55.4 °F88 %29.92 in6.2 miWest (270°)15.0 mphMostly Cloudy
5:20 PM59.0 °F55.4 °F88 %29.92 in6.2 miWest (270°)16.1 mphMostly Cloudy
5:50 PM59.0 °F55.4 °F88 %29.92 in6.2 miWest (270°)15.0 mphMostly Cloudy
6:20 PM57.2 °F53.6 °F88 %29.92 in6.2 miWest (270°)16.1 mphMostly Cloudy
6:50 PM57.2 °F53.6 °F88 %29.92 in6.2 miWest (270°)15.0 mphScattered Clouds
7:20 PM57.2 °F51.8 °F82 %29.92 in6.2 miWest (270°)12.7 mphPartly Cloudy
7:50 PM55.4 °F51.8 °F88 %29.92 in6.2 miWest (270°)12.7 mphPartly Cloudy
8:20 PM57.2 °F51.8 °F82 %29.89 in6.2 miWest (280°)12.7 mphPartly Cloudy
8:50 PM55.4 °F51.8 °F88 %29.89 in6.2 miWest (280°)12.7 mphPartly Cloudy
9:20 PM55.4 °F50.0 °F82 %29.89 in6.2 miWest (270°)11.5 mphScattered Clouds
9:50 PM53.6 °F50.0 °F88 %29.89 in6.2 miWest (260°)10.4 mphScattered Clouds
10:20 PM55.4 °F50.0 °F82 %29.89 in6.2 miWSW (240°)12.7 mphPartly Cloudy
10:50 PM55.4 °F48.2 °F77 %29.86 in6.2 miWSW (250°)11.5 mphPartly Cloudy
11:20 PM53.6 °F48.2 °F82 %29.86 in6.2 miWSW (240°)9.2 mphRainLight Rain
11:50 PM53.6 °F50.0 °F88 %29.83 in6.2 miSW (230°)8.1 mphRainLight Rain
Hourly data recorded from EGFF, located miles away from Cardiff, Wales







STORIES FROM OUR PARTNERS